Regional Weather Roundup
Issued by NWS

Home | Current Version | Previous Version | Graphics & Text | Print | Product List | Glossary On
Versions: 1 2 3 4 5 6 7 8 9 10 11 12 13 14 15 16 17 18 19 20 21 22 23 24 25 26 27 28 29 30 31 32 33 34 35 36 37 38 39 40 41 42 43 44 45 46 47 48 49 50
524
ASUS43 KBIS 050002
RWRND

NORTH DAKOTA REGIONAL WEATHER ROUNDUP
NATIONAL WEATHER SERVICE BISMARCK ND
600 PM CST SUN DEC 04 2016

NOTE: "FAIR" INDICATES FEW OR NO CLOUDS BELOW 12,000 FEET WITH NO
SIGNIFICANT WEATHER AND/OR OBSTRUCTIONS TO VISIBILITY.


NDZ001>003-009>011-017-050100-
NORTHWEST NORTH DAKOTA

CITY           SKY/WX    TMP DP  RH WIND       PRES   REMARKS
WILLISTON      PTCLDY    27  21  78 CALM      29.59F
6HR MIN TEMP:  27; 6HR MAX TEMP:  33;

MINOT          CLEAR     20  16  84 SW5       29.63S WCI  13
MINOT AFB      CLEAR     14  11  89 NE1       29.62F
$$

NDZ018>021-031>035-040>046-050100-
SOUTHWEST NORTH DAKOTA

CITY           SKY/WX    TMP DP  RH WIND       PRES   REMARKS
BISMARCK       CLEAR     21  18  88 CALM      29.69S
6HR MIN TEMP:  20; 6HR MAX TEMP:  33;

DICKINSON      CLEAR     22  16  78 S7        29.59F WCI  13
GARRISON         N/A     17  14  88 CALM      29.64R
6HR MIN TEMP:  17; 6HR MAX TEMP:  31;

HETTINGER ARPT CLOUDY    29  22  75 SE6       29.64F
$$

NDZ004>008-012>016-024-026-027-054-050100-
NORTHEAST NORTH DAKOTA

CITY           SKY/WX    TMP DP  RH WIND       PRES   REMARKS
GRAND FORKS    FLURRIES  31  27  85 W13       29.65R
GRND FRKS AFB  CLOUDY    31  26  82 NW14      29.65R
DEVILS LAKE    CLOUDY    25  23  92 W9        29.64F WCI  15
$$

NDZ022-023-025-028>030-036>039-047>053-050100-
SOUTHEAST NORTH DAKOTA

CITY           SKY/WX    TMP DP  RH WIND       PRES   REMARKS
FARGO          CLEAR     31  26  82 W12       29.69S
6HR MIN TEMP:  31; 6HR MAX TEMP:  35;

JAMESTOWN      CLEAR     28  24  85 W7        29.66F
$$





USA.gov is the U.S. government's official web portal to all federal, state and local government web resources and services.